User: anonymous   Login
Location: Theydon Bois
(51.6750°N, 0.1050°E)
Time: 04:14:00
(UTC+00:00)
Language:

COSMOS 2487 - Orbit

View from above orbital plane
View from above orbital plane
View from above satellite
View from above satellite

Ground track
Ground track

The orbit data is extracted from the following two-line orbital elements,

1 39194U 13032A   17344.61950143 +.00002719 +00000-0 +78503-4 0  9999
2 39194 074.7131 145.5453 0001953 068.1681 291.9736 15.36165033248550
Epoch (UTC): 10 December 2017 14:52:04
Eccentricity: 0.0001953
inclination: 74.7131°
perigee height: 456 km
apogee height: 459 km
right ascension of ascending node: 145.5453°
argument of perigee: 68.1681°
revolutions per day: 15.36165033
mean anomaly at epoch: 291.9736°
orbit number at epoch: 24855

The dashed part of the orbit path shows where the satellite is in the earth's shadow,  

DLR